KD7TTL Weather Reports


Display with metric or nautical units.
time (UTC)temp
F
wind
direction
speed
MPH
gust
MPH
rain 1hr
in
rain 24hr
in
rain mn
in
humidity
%
barometer
mb
20260508022003 60 51 0.0 2.0 0.00 0.00 0.00 70 1018.5
20260508021506 60 68 0.0 1.0 0.00 0.00 0.00 71 1018.6
20260508021004 60 51 0.0 1.0 0.00 0.00 0.00 69 1018.6
20260508020503 60 265 0.0 2.0 0.00 0.00 0.00 71 1018.6
20260508020009 60 9 0.0 2.0 0.00 0.00 0.00 71 1018.6
20260508015503 60 26 0.0 3.0 0.00 0.00 0.00 69 1018.5
20260508015003 60 41 1.0 3.0 0.00 0.00 0.00 69 1018.6
20260508014506 60 51 0.0 3.0 0.00 0.00 0.00 70 1018.7
20260508014004 60 57 0.0 2.0 0.00 0.00 0.00 70 1018.7
20260508013509 60 205 0.0 2.0 0.00 0.00 0.00 71 1018.7
20260508013007 60 162 1.0 2.0 0.00 0.00 0.00 69 1018.8
20260508012504 60 196 0.0 3.0 0.00 0.00 0.00 72 1018.9
20260508012002 60 178 1.0 4.0 0.00 0.00 0.00 70 1018.9
20260508011507 60 137 1.0 4.0 0.00 0.00 0.00 69 1019.0
20260508011004 60 137 0.0 3.0 0.00 0.00 0.00 69 1019.1
20260508010503 60 68 1.0 3.0 0.00 0.00 0.00 70 1019.1
20260508010013 60 93 0.0 4.0 0.00 0.00 0.00 70 1019.1
20260508005503 60 24 2.0 4.0 0.00 0.00 0.00 69 1019.1
20260508005004 60 30 1.0 4.0 0.00 0.00 0.00 70 1019.2
20260508004507 60 34 0.0 3.0 0.00 0.00 0.00 71 1019.2
20260508004003 60 126 1.0 4.0 0.00 0.00 0.00 69 1019.2
20260508003506 60 108 1.0 4.0 0.00 0.00 0.00 70 1019.3
20260508003007 61 137 1.0 2.0 0.00 0.00 0.00 71 1019.3
20260508002503 61 265 0.0 2.0 0.00 0.00 0.00 71 1019.3
20260508002003 61 78 0.0 3.0 0.00 0.00 0.00 71 1019.2
20260508001508 61 325 1.0 4.0 0.00 0.00 0.00 69 1019.2
20260508001002 61 221 1.0 4.0 0.00 0.00 0.00 72 1019.2
20260508000507 61 178 0.0 3.0 0.00 0.00 0.00 68 1019.2
20260508000007 61 115 1.0 3.0 0.00 0.00 0.00 69 1019.2
20260507235503 61 9 0.0 4.0 0.00 0.00 0.00 70 1019.1
20260507235004 61 51 1.0 4.0 0.00 0.00 0.00 70 1019.2
20260507234511 61 93 0.0 4.0 0.00 0.00 0.00 72 1019.3
20260507234003 60 334 2.0 5.0 0.00 0.00 0.00 69 1019.3
20260507233503 61 43 2.0 6.0 0.00 0.00 0.00 69 1019.3
20260507233013 61 45 2.0 6.0 0.00 0.00 0.00 70 1019.3
20260507232504 61 51 2.0 4.0 0.00 0.00 0.00 69 1019.4
20260507232004 60 51 0.0 2.0 0.00 0.00 0.00 73 1019.5
20260507231506 60 254 0.0 4.0 0.00 0.00 0.00 72 1019.5
20260507231008 60 137 0.0 4.0 0.00 0.00 0.00 74 1019.6
20260507230504 60 309 1.0 4.0 0.00 0.00 0.00 72 1019.7
20260507230014 60 61 1.0 4.0 0.00 0.00 0.00 71 1019.8
20260507225502 59 298 0.0 5.0 0.00 0.00 0.00 72 1019.8
20260507225003 60 140 2.0 5.0 0.00 0.00 0.00 73 1019.8
20260507224509 60 165 2.0 5.0 0.00 0.00 0.00 71 1019.8
20260507224003 60 51 1.0 4.0 0.00 0.00 0.00 72 1019.9
20260507223503 59 325 1.0 3.0 0.00 0.00 0.00 74 1020.0
20260507223009 59 265 0.0 4.0 0.00 0.00 0.00 73 1020.0
20260507222502 59 9 1.0 4.0 0.00 0.00 0.00 73 1020.0
20260507222003 59 51 0.0 3.0 0.00 0.00 0.00 75 1020.1
20260507221506 59 51 0.0 3.0 0.00 0.00 0.00 73 1020.1
20260507221011 59 65 1.0 3.0 0.00 0.00 0.00 73 1020.1
20260507220503 58 169 1.0 3.0 0.00 0.00 0.00 77 1020.2
20260507220006 58 120 1.0 4.0 0.00 0.00 0.00 77 1020.3
20260507215503 57 162 1.0 4.0 0.00 0.00 0.00 78 1020.3
20260507215004 57 164 1.0 4.0 0.00 0.00 0.00 76 1020.5
20260507214508 57 147 2.0 4.0 0.00 0.00 0.00 75 1020.4
20260507214003 57 178 1.0 4.0 0.00 0.00 0.00 76 1020.5
20260507213503 57 41 1.0 3.0 0.00 0.00 0.00 75 1020.6
20260507213010 57 93 0.0 6.0 0.00 0.00 0.00 76 1020.6
20260507212502 57 22 1.0 6.0 0.00 0.00 0.00 79 1020.6
20260507212003 57 46 3.0 5.0 0.00 0.00 0.00 77 1020.7
20260507211508 56 334 1.0 5.0 0.00 0.00 0.00 79 1020.7
20260507211004 56 43 2.0 4.0 0.00 0.00 0.00 78 1020.7
20260507210503 56 59 1.0 4.0 0.00 0.00 0.00 78 1020.8
20260507210009 56 51 1.0 4.0 0.00 0.00 0.00 76 1020.8
20260507205503 56 146 1.0 2.0 0.00 0.00 0.00 80 1020.8
20260507205005 56 137 0.0 3.0 0.00 0.00 0.00 79 1020.9
20260507204529 55 9 1.0 3.0 0.00 0.00 0.00 78 1021.0
20260507204004 55 61 0.0 4.0 0.00 0.00 0.00 79 1021.0
20260507203503 55 26 2.0 4.0 0.00 0.00 0.00 78 1021.2
20260507203008 55 47 1.0 3.0 0.00 0.00 0.00 79 1021.3
20260507202502 55 165 0.0 5.0 0.00 0.00 0.00 82 1021.4
20260507202004 55 41 1.0 5.0 0.00 0.00 0.00 81 1021.4
20260507201509 55 24 1.0 3.0 0.00 0.00 0.00 81 1021.4
20260507201008 55 41 1.0 3.0 0.00 0.00 0.00 81 1021.4
20260507200510 55 93 0.0 4.0 0.00 0.00 0.00 81 1021.5
20260507200027 55 38 0.0 5.0 0.00 0.00 0.00 81 1021.4
20260507195507 55 105 1.0 5.0 0.00 0.00 0.00 81 1021.5
20260507195011 55 129 1.0 5.0 0.00 0.00 0.00 82 1021.6
20260507194538 55 162 1.0 5.0 0.00 0.00 0.00 81 1021.6
20260507194008 55 153 0.0 3.0 0.00 0.00 0.00 82 1021.6
20260507193516 55 126 0.0 3.0 0.00 0.00 0.00 82 1021.6
20260507193025 54 51 1.0 4.0 0.00 0.00 0.00 82 1021.6
20260507192511 54 309 0.0 4.0 0.00 0.00 0.00 83 1021.6
20260507192012 54 22 1.0 4.0 0.00 0.00 0.00 84 1021.6
20260507191528 54 64 1.0 3.0 0.00 0.00 0.00 84 1021.5
20260507191014 53 9 2.0 3.0 0.00 0.00 0.00 85 1021.6
20260507190509 53 55 1.0 3.0 0.00 0.00 0.00 85 1021.6
20260507190042 53 51 0.0 4.0 0.00 0.00 0.00 84 1021.6
20260507185511 52 291 1.0 4.0 0.00 0.00 0.00 85 1021.6
20260507185013 52 325 1.0 3.0 0.00 0.00 0.00 85 1021.7
20260507184541 52 93 0.0 3.0 0.00 0.00 0.00 86 1021.7
20260507184008 52 51 1.0 3.0 0.00 0.00 0.00 86 1021.7
20260507183510 52 178 1.0 2.0 0.00 0.00 0.00 87 1021.7
20260507183030 52 137 0.0 3.0 0.00 0.00 0.00 86 1021.7
20260507182508 52 115 0.0 3.0 0.00 0.00 0.00 86 1021.7
20260507182013 52 146 1.0 3.0 0.00 0.00 0.00 85 1021.7
20260507181528 52 144 1.0 3.0 0.00 0.00 0.00 86 1021.7
20260507181004 52 68 0.0 3.0 0.00 0.00 0.00 86 1021.7
20260507180503 52 137 1.0 3.0 0.00 0.00 0.00 86 1021.8
20260507180015 52 144 1.0 3.0 0.00 0.00 0.00 88 1021.7
20260507175510 51 165 1.0 4.0 0.00 0.00 0.00 87 1021.8
20260507175003 51 309 1.0 4.0 0.00 0.00 0.00 87 1021.8
20260507174510 51 265 1.0 3.0 0.00 0.00 0.00 87 1021.9
20260507174003 51 67 0.0 3.0 0.00 0.00 0.00 88 1022.0
20260507173508 51 346 1.0 3.0 0.00 0.00 0.00 88 1022.0
20260507173020 51 126 0.0 2.0 0.00 0.00 0.00 89 1022.0
20260507172503 51 325 0.0 3.0 0.00 0.00 0.00 88 1022.0
20260507172002 51 51 1.0 3.0 0.00 0.00 0.00 87 1022.0
20260507171506 50 9 0.0 3.0 0.00 0.00 0.00 88 1022.0
20260507171002 50 44 1.0 4.0 0.00 0.00 0.00 88 1021.9
20260507170511 50 65 2.0 4.0 0.00 0.00 0.00 87 1022.0
20260507170013 50 15 2.0 5.0 0.00 0.00 0.00 87 1021.9
20260507165503 50 9 2.0 5.0 0.00 0.00 0.00 87 1021.9
20260507165004 50 34 1.0 4.0 0.00 0.00 0.00 87 1021.8
20260507164519 50 51 1.0 4.0 0.00 0.00 0.00 87 1021.8
20260507164002 50 44 1.0 3.0 0.00 0.00 0.00 88 1021.8
20260507163504 50 41 1.0 4.0 0.00 0.00 0.00 88 1021.8
20260507163007 50 24 1.0 4.0 0.00 0.00 0.00 89 1021.9
20260507162503 50 51 1.0 4.0 0.00 0.00 0.00 88 1021.8
20260507162003 50 55 2.0 4.0 0.00 0.00 0.00 88 1021.8
20260507161508 50 49 1.0 4.0 0.00 0.00 0.00 89 1021.9
20260507161003 50 34 0.0 2.0 0.00 0.00 0.00 89 1021.9
20260507160505 50 93 0.0 2.0 0.00 0.00 0.00 89 1022.0
20260507160007 50 51 0.0 4.0 0.00 0.00 0.00 90 1022.0
20260507155503 50 51 0.0 4.0 0.00 0.00 0.00 90 1022.0
20260507155014 50 34 1.0 3.0 0.00 0.00 0.00 90 1022.0
20260507154508 50 9 0.0 3.0 0.00 0.00 0.00 90 1022.1
20260507154004 50 34 1.0 3.0 0.00 0.00 0.00 90 1022.1
20260507153502 50 59 1.0 3.0 0.00 0.00 0.00 90 1022.0
20260507153007 50 68 1.0 3.0 0.00 0.00 0.00 90 1022.0
20260507152502 50 9 0.0 3.0 0.00 0.00 0.00 90 1022.0
20260507152003 49 59 1.0 3.0 0.00 0.00 0.00 91 1022.0
20260507151507 49 93 0.0 2.0 0.00 0.00 0.00 91 1022.0
20260507151003 49 93 0.0 1.0 0.00 0.00 0.00 91 1021.9
20260507150503 49 93 0.0 2.0 0.00 0.00 0.00 91 1022.0
20260507150009 49 51 0.0 2.0 0.00 0.00 0.00 91 1022.0
20260507145502 49 9 0.0 2.0 0.00 0.00 0.00 91 1022.0
20260507145003 49 72 0.0 2.0 0.00 0.00 0.00 91 1022.0
20260507144508 49 51 0.0 3.0 0.00 0.00 0.00 91 1022.0
20260507144003 49 93 1.0 3.0 0.00 0.00 0.00 91 1021.9
20260507143502 49 64 1.0 2.0 0.00 0.00 0.00 91 1021.9
20260507143018 49 80 0.0 2.0 0.00 0.00 0.00 91 1021.9
20260507142504 49 93 0.0 2.0 0.00 0.00 0.00 91 1021.8
20260507142003 49 51 0.0 2.0 0.00 0.00 0.00 91 1021.8
20260507141516 49 41 0.0 2.0 0.00 0.00 0.00 91 1021.8
20260507141002 49 9 0.0 1.0 0.00 0.00 0.00 91 1021.7
20260507140502 49 93 0.0 1.0 0.00 0.00 0.00 91 1021.6
20260507140007 49 93 0.0 2.0 0.00 0.00 0.00 91 1021.7
20260507135502 49 178 0.0 2.0 0.00 0.00 0.00 91 1021.7
20260507135005 49 9 0.0 2.0 0.00 0.00 0.00 91 1021.7
20260507134507 49 9 0.0 2.0 0.00 0.00 0.00 91 1021.7
20260507134003 49 9 0.0 4.0 0.00 0.00 0.00 91 1021.7
20260507133503 49 47 1.0 4.0 0.00 0.00 0.00 90 1021.7
20260507133007 50 41 0.0 3.0 0.00 0.00 0.00 90 1021.7
20260507132502 50 93 0.0 3.0 0.00 0.00 0.00 90 1021.7
20260507132006 50 282 0.0 2.0 0.00 0.00 0.00 90 1021.7
20260507131516 50 9 1.0 3.0 0.00 0.00 0.00 90 1021.7
20260507131003 50 9 1.0 3.0 0.00 0.00 0.00 90 1021.7
20260507130502 50 309 2.0 3.0 0.00 0.00 0.00 90 1021.7
20260507130006 50 51 0.0 2.0 0.00 0.00 0.00 90 1021.7
20260507125504 50 319 0.0 5.0 0.00 0.00 0.00 91 1021.7
20260507125002 50 59 1.0 5.0 0.00 0.00 0.00 91 1021.7
20260507124513 50 51 1.0 3.0 0.00 0.00 0.00 91 1021.7
20260507124004 50 265 1.0 3.0 0.00 0.00 0.00 92 1021.8
20260507123503 51 9 0.0 2.0 0.00 0.00 0.00 92 1021.8
20260507123008 50 51 0.0 2.0 0.00 0.00 0.00 91 1021.8
20260507122509 51 51 0.0 2.0 0.00 0.00 0.00 91 1021.8
20260507122010 51 34 0.0 2.0 0.00 0.00 0.00 91 1021.8
20260507121527 51 44 1.0 2.0 0.00 0.00 0.00 91 1021.9
20260507121012 51 59 1.0 2.0 0.00 0.00 0.00 91 1021.9
20260507120514 51 93 0.0 1.0 0.00 0.00 0.00 91 1022.0
20260507120029 51 9 0.0 1.0 0.00 0.00 0.00 91 1021.9
20260507115509 51 178 0.0 1.0 0.00 0.00 0.00 91 1022.0
20260507115011 51 76 0.0 2.0 0.00 0.00 0.00 91 1021.9
20260507114550 51 51 0.0 2.0 0.00 0.00 0.00 91 1022.0
20260507114014 51 68 0.0 2.0 0.00 0.00 0.00 91 1022.0
20260507113510 51 93 0.0 2.0 0.00 0.00 0.00 91 1022.1
20260507113057 51 68 0.0 1.0 0.00 0.00 0.00 90 1022.1
20260507112510 51 76 0.0 1.0 0.00 0.00 0.00 91 1022.1
20260507112013 51 68 0.0 1.0 0.00 0.00 0.00 91 1022.1
20260507111538 51 34 0.0 1.0 0.00 0.00 0.00 90 1022.2
20260507111010 51 68 0.0 1.0 0.00 0.00 0.00 90 1022.2
20260507110510 51 51 0.0 1.0 0.00 0.00 0.00 90 1022.3
20260507110028 51 51 0.0 2.0 0.00 0.00 0.00 90 1022.3
20260507105511 51 325 0.0 3.0 0.00 0.00 0.00 90 1022.3
20260507105011 51 9 0.0 3.0 0.00 0.00 0.00 90 1022.3
20260507104538 51 9 0.0 2.0 0.00 0.00 0.00 90 1022.3
20260507104010 51 34 0.0 1.0 0.00 0.00 0.00 90 1022.3
20260507103507 51 51 0.0 1.0 0.00 0.00 0.00 90 1022.3
20260507103031 51 68 0.0 1.0 0.00 0.00 0.00 90 1022.3
20260507102510 51 68 0.0 1.0 0.00 0.00 0.00 90 1022.2
20260507102015 51 68 0.0 1.0 0.00 0.00 0.00 90 1022.2
20260507101529 51 9 0.0 1.0 0.00 0.00 0.00 90 1022.3
20260507101010 51 93 0.0 1.0 0.00 0.00 0.00 90 1022.3
20260507100510 51 41 0.0 1.0 0.00 0.00 0.00 90 1022.3
20260507100030 51 137 0.0 2.0 0.00 0.00 0.00 90 1022.3
20260507095510 51 93 0.0 2.0 0.00 0.00 0.00 90 1022.3
20260507095009 51 44 1.0 2.0 0.00 0.00 0.00 90 1022.4
20260507094533 51 22 0.0 1.0 0.00 0.00 0.00 90 1022.4
20260507094009 51 51 0.0 1.0 0.00 0.00 0.00 90 1022.4
20260507093512 51 9 0.0 1.0 0.00 0.00 0.00 90 1022.3
20260507093034 51 51 0.0 2.0 0.00 0.00 0.00 90 1022.4
20260507092513 51 93 0.0 2.0 0.00 0.00 0.00 90 1022.4
20260507092014 51 24 1.0 4.0 0.00 0.00 0.00 90 1022.4
20260507091531 51 162 0.0 4.0 0.00 0.00 0.00 90 1022.4
20260507091003 51 153 1.0 4.0 0.00 0.00 0.00 90 1022.4
20260507090502 51 162 0.0 2.0 0.00 0.00 0.00 90 1022.3
20260507090006 51 9 0.0 2.0 0.00 0.00 0.00 90 1022.3
20260507085503 51 34 0.0 3.0 0.00 0.00 0.00 90 1022.3
20260507085003 51 34 1.0 3.0 0.00 0.00 0.00 90 1022.3
20260507084508 51 34 0.0 3.0 0.00 0.00 0.00 90 1022.4
20260507084002 51 36 1.0 3.0 0.00 0.00 0.00 90 1022.3
20260507083503 51 34 0.0 3.0 0.00 0.00 0.00 90 1022.3
20260507083008 52 265 0.0 2.0 0.00 0.00 0.00 90 1022.2
20260507082502 52 51 0.0 2.0 0.00 0.00 0.00 90 1022.1
20260507082002 52 309 0.0 2.0 0.00 0.00 0.00 90 1022.1
20260507081508 52 93 0.0 5.0 0.00 0.00 0.00 90 1022.1
20260507081003 52 22 1.0 5.0 0.00 0.00 0.00 90 1022.2
20260507080506 52 57 1.0 3.0 0.00 0.00 0.00 90 1022.3
20260507080005 52 38 1.0 3.0 0.00 0.00 0.00 90 1022.2
20260507075503 52 26 0.0 3.0 0.00 0.00 0.00 90 1022.3
20260507075003 52 93 0.0 3.0 0.00 0.00 0.00 90 1022.2
20260507074508 52 41 1.0 4.0 0.00 0.00 0.00 89 1022.2
20260507074005 52 51 0.0 4.0 0.00 0.00 0.00 89 1022.2
20260507073505 52 9 1.0 5.0 0.00 0.00 0.00 89 1022.2
20260507073010 52 309 2.0 5.0 0.00 0.00 0.00 89 1022.2
20260507072504 52 235 0.0 4.0 0.00 0.00 0.00 88 1022.2
20260507072003 53 105 1.0 4.0 0.00 0.00 0.00 88 1022.1
20260507071506 53 76 1.0 4.0 0.00 0.00 0.00 88 1022.0
20260507071003 53 16 2.0 4.0 0.00 0.00 0.00 88 1022.0
20260507070504 53 93 0.0 2.0 0.00 0.00 0.00 89 1022.1
20260507070013 53 93 0.0 2.0 0.00 0.00 0.00 89 1022.0
20260507065502 53 34 0.0 1.0 0.00 0.00 0.00 89 1021.9
20260507065002 53 93 0.0 1.0 0.00 0.00 0.00 88 1021.9
20260507064509 53 51 0.0 1.0 0.00 0.00 0.00 88 1021.8
20260507064004 53 93 0.0 1.0 0.00 0.00 0.00 88 1021.8
20260507063507 53 51 0.0 1.0 0.00 0.00 0.00 88 1021.8
20260507063008 53 51 0.0 1.0 0.00 0.00 0.00 88 1021.9
20260507062503 53 93 0.0 1.0 0.00 0.00 0.00 88 1021.9
20260507062004 53 93 0.0 1.0 0.00 0.00 0.00 87 1021.9
20260507061508 53 93 0.0 1.0 0.00 0.00 0.00 87 1021.9
20260507061004 53 93 0.0 1.0 0.00 0.00 0.00 87 1021.9
20260507060503 53 93 0.0 1.0 0.00 0.00 0.00 87 1021.8
20260507060008 53 51 0.0 1.0 0.00 0.00 0.00 87 1021.8
20260507055503 53 93 0.0 1.0 0.00 0.00 0.00 87 1021.8
20260507055006 53 51 0.0 0.0 0.00 0.00 0.00 87 1021.8
20260507054507 53 9 0.0 0.0 0.00 0.00 0.00 87 1021.8
20260507054003 53 51 0.0 0.0 0.00 0.00 0.00 87 1021.9
20260507053503 53 93 0.0 1.0 0.00 0.00 0.00 86 1021.9
20260507053007 53 51 0.0 1.0 0.00 0.00 0.00 87 1021.9
20260507052504 53 51 0.0 1.0 0.00 0.00 0.00 87 1022.0
20260507052004 53 51 0.0 0.0 0.00 0.00 0.00 86 1022.0
20260507051506 53 51 0.0 1.0 0.00 0.00 0.00 86 1022.0
20260507051009 53 51 0.0 1.0 0.00 0.00 0.00 86 1022.0
20260507050504 54 93 0.0 1.0 0.00 0.00 0.00 87 1022.0
20260507050012 54 68 0.0 1.0 0.00 0.00 0.00 86 1022.0
20260507045504 54 51 0.0 1.0 0.00 0.00 0.00 86 1022.0
20260507045004 54 51 0.0 1.0 0.00 0.00 0.00 86 1022.0
20260507044508 54 68 0.0 1.0 0.00 0.00 0.00 86 1022.1
20260507044010 54 93 0.0 1.0 0.00 0.00 0.00 86 1022.1
20260507043511 54 51 0.0 1.0 0.00 0.00 0.00 85 1022.1
20260507043029 54 93 0.0 1.0 0.00 0.00 0.00 85 1022.2
20260507042512 54 9 0.0 1.0 0.00 0.00 0.00 85 1022.2
20260507042014 54 51 0.0 1.0 0.00 0.00 0.00 85 1022.2
20260507041530 54 51 0.0 2.0 0.00 0.00 0.00 85 1022.2
20260507041010 54 68 0.0 2.0 0.00 0.00 0.00 84 1022.2
20260507040510 54 51 0.0 1.0 0.00 0.00 0.00 84 1022.2
20260507040028 54 68 0.0 1.0 0.00 0.00 0.00 84 1022.1
20260507035512 54 51 0.0 0.0 0.00 0.00 0.00 84 1022.1
20260507035010 54 51 0.0 0.0 0.00 0.00 0.00 83 1022.0
20260507034535 54 51 0.0 0.0 0.00 0.00 0.00 83 1021.9
20260507034012 54 51 0.0 0.0 0.00 0.00 0.00 83 1021.8
20260507033511 55 51 0.0 0.0 0.00 0.00 0.00 83 1021.8
20260507033028 54 9 0.0 1.0 0.00 0.00 0.00 83 1021.9
20260507032512 55 9 0.0 1.0 0.00 0.00 0.00 83 1021.8
20260507032011 55 93 0.0 1.0 0.00 0.00 0.00 83 1021.7
20260507031529 55 120 0.0 1.0 0.00 0.00 0.00 83 1021.7
20260507031012 55 51 0.0 2.0 0.00 0.00 0.00 83 1021.7
20260507030517 55 76 0.0 2.0 0.00 0.00 0.00 82 1021.7
20260507030027 55 93 0.0 2.0 0.00 0.00 0.00 81 1021.6
20260507025511 55 59 0.0 3.0 0.00 0.00 0.00 81 1021.7
20260507025011 55 68 0.0 3.0 0.00 0.00 0.00 81 1021.8
20260507024528 55 221 0.0 4.0 0.00 0.00 0.00 80 1021.7
20260507024009 55 51 1.0 4.0 0.00 0.00 0.00 81 1021.6
20260507023513 56 76 0.0 2.0 0.00 0.00 0.00 80 1021.7
20260507023030 56 137 0.0 2.0 0.00 0.00 0.00 81 1021.6
20260507022510 56 137 0.0 2.0 0.00 0.00 0.00 80 1021.5